Location: *
(40.7765°S, 106.5327°E)
Time: 15:40:09
(UTC+00:00)

Cosmos 1802 Rocket - Pass Details

Date: 26 May 2022
Orbit: 953 x 1012 km, 82.9° (Epoch: 04 July)

Event Time Altitude Azimuth Distance (km) Brightness Sun altitude
Rises 10:51:29 0° 186° (S) 3,761 7.0 -13.7°
Reaches altitude 10° 10:54:04 10° 183° (S) 2,811 6.3 -14.2°
Maximum altitude 11:00:32 69° 99° (E) 1,086 4.0 -15.4°
Drops below altitude 10° 11:06:57 10° 15° (NNE) 2,794 6.4 -16.6°
Sets 11:09:29 0° 13° (NNE) 3,736 7.1 -17.0°
